Location: Berg
(47.2344°N, 9.5296°E)
Time: 22:04:09
(UTC+00:00)

Cosmos 1602 Rocket - Pass Details

Date: 24 January 2021
Orbit: 604 x 632 km, 82.5° (Epoch: 04 March)

Event Time Altitude Azimuth Distance (km) Brightness Sun altitude
Rises 17:56:21 0° 188° (S) 2,854 7.2 -17.5°
Reaches altitude 10° 17:58:32 10° 188° (S) 1,958 6.3 -17.9°
Maximum altitude 18:02:53 89° 273° (W) 620 3.5 -18.6°
Drops below altitude 10° 18:07:18 10° 9° (N) 1,991 6.0 -19.4°
Enters shadow 18:08:31 - 9° (N) 2,483 6.5 -19.6°
